This demonstration page uses our WeatherBlox Daily Observations layout. Learn more.

Left ArrowRight Arrow

Hourly Observations for May 18, 2019

Temp ( °F °C ) Dew Point ( °F °C ) Humidity (%) Winds ( mph kmh ) Pressure ( in mb ) Visibility ( mi km ) Precip ( " mm )
12:52 am 00:52 Clear 69 20.6 55 12.8 61 61 S 12 19 29.75 1007 10 16 0.00 0.00
1:52 am 01:52 Clear 69 20.6 55 12.8 61 61 SSE 13 20 29.74 1007 10 16 0.00 0.00
2:52 am 02:52 Clear 67 19.4 55 12.8 66 66 SSE 10 17 29.74 1007 10 16 0.00 0.00
3:52 am 03:52 Clear 67 19.4 55 12.8 66 66 SSE 13 20 29.72 1007 10 16 0.00 0.00
4:52 am 04:52 Mostly Cloudy 68 20 56 13.3 65 65 SSE 14 22 29.73 1007 10 16 0.00 0.00
5:52 am 05:52 Cloudy 69 20.6 57 13.9 66 66 SSE 14 22 29.75 1007 10 16 0.00 0.00
6:52 am 06:52 Partly Cloudy 69 20.6 59 15 70 70 SSE 14 22 29.74 1007 10 16 0.00 0.00
7:52 am 07:52 Partly Cloudy 70 21.1 61 16.1 73 73 SSE 14 22 29.75 1008 10 16 0.00 0.00
8:52 am 08:52 Cloudy 71 21.7 62 16.7 73 73 S 14 22 29.76 1008 10 16 0.00 0.00
9:52 am 09:52 Cloudy 71 21.7 63 17.2 76 76 SSE 14 22 29.76 1008 10 16 0.00 0.03
10:52 am 10:52 Sunny 77 25 66 18.9 69 69 SSE 21 33 29.72 1007 10 16 0.00 0.00
11:52 am 11:52 Mostly Sunny 78 25.6 66 18.9 67 67 S 22 35 29.70 1006 10 16 0.00 0.00
12:52 pm 12:52 Sunny 78 25.6 65 18.3 64 64 SSE 23 37 29.65 1004 10 16 0.00 0.00
1:52 pm 13:52 Mostly Sunny 79 26.1 64 17.8 60 60 S 23 37 29.66 1004 10 16 0.00 0.00
2:52 pm 14:52 Mostly Cloudy 78 25.6 64 17.8 62 62 S 24 39 29.64 1004 10 16 0.00 0.00
3:39 pm 15:39 Mostly Cloudy with Heavy Rain 65 18.3 60 15.6 84 84 WSW 14 22 29.69 1005 2 3 0.00 0.03
3:52 pm 15:52 Cloudy with Light Rain 64 17.8 61 16.1 90 90 WSW 16 26 29.70 1006 3 4 0.14 3.56
3:55 pm 15:55 Cloudy with Nearby Thunderstorms 64 17.8 61 16.1 90 90 SW 18 30 29.71 1006 5 8 0.00 0.03
3:58 pm 15:58 Cloudy with Thunderstorms 64 17.8 61 16.1 90 90 SW 15 24 29.72 1007 5 8 0.01 0.25
4:10 pm 16:10 Cloudy with Thunderstorms 64 17.8 61 16.1 90 90 WSW 15 24 29.71 1006 4 6 0.06 1.52
4:19 pm 16:19 Cloudy with Nearby Thunderstorms 64 17.8 60 15.6 87 87 WSW 13 20 29.70 1006 6 10 0.07 1.78
4:27 pm 16:27 Cloudy with Light Rain 64 17.8 61 16.1 90 90 SW 13 20 29.71 1006 10 16 0.08 2.03
4:52 pm 16:52 Cloudy with Rain 63 17.2 60 15.6 90 90 WSW 12 19 29.70 1006 6 10 0.11 2.79
5:52 pm 17:52 Mostly Cloudy with Light Rain 63 17.2 59 15 87 87 SE 13 20 29.62 1003 10 16 0.05 1.27
6:52 pm 18:52 Mostly Sunny 63 17.2 59 15 87 87 S 13 20 29.60 1002 10 16 0.00 0.03
7:52 pm 19:52 Mostly Sunny 62 16.7 59 15 90 90 S 6 9 29.60 1003 10 16 0.00 0.00
8:52 pm 20:52 Partly Cloudy 63 17.2 58 14.4 84 84 S 14 22 29.62 1003 10 16 0.00 0.00
9:52 pm 21:52 Mostly Cloudy 62 16.7 58 14.4 86 86 SSE 14 22 29.63 1004 10 16 0.00 0.00
10:52 pm 22:52 Cloudy 63 17.2 58 14.4 84 84 SSE 10 17 29.65 1004 10 16 0.00 0.00
11:52 pm 23:52 Cloudy 63 17.2 59 15 87 87 SSE 10 17 29.62 1003 10 16 0.00 0.00

Powered by AerisWeather